Back to catalog

STARLINK-36972

AliveCommunicationsVLEO
NORAD 68072·PAYLOAD·🇺🇸 United States

Launched Mar 4, 2026 from Vandenberg Space Force Base

Loading…

Next Passes (next 24 hours)

TLE

FreshSource: CelesTrak SupGP

Epoch: Sep 15, 2026, 03:22 UTC

1 68072C 26042D   26258.14076389  .00057131  00000+0  16884-2 0  2581
2 68072  53.1595  14.5274 0001204  92.8770 145.4626 15.34354091    10

Track STARLINK-36972 in real time with AllMySat

Download on the App Store